Regional Weather Roundup
Issued by NWS

Home | Current Version | Previous Version | Text Only | Print | Product List | Glossary On
Versions: 1 2 3 4 5 6 7 8 9 10 11 12 13 14 15 16 17 18 19 20 21 22 23 24 25 26 27 28 29 30 31 32 33 34 35 36 37 38 39 40 41 42 43 44 45 46 47 48 49 50
000
ASUS44 KMEG 271210
RWRTN
TENNESSEE HOURLY STATE WEATHER ROUNDUP
NATIONAL WEATHER SERVICE MEMPHIS TN
700 AM CDT SAT AUG 27 2016

TNZ002-004-019-021-049-052-054-088>092-271300-
WEST TENNESSEE

CITY           SKY/WX    TMP DP  RH WIND       PRES   REMARKS
MEMPHIS INTL   PTCLDY    73  69  87 CALM      30.05R
NWS MEMPHIS      N/A     69 N/A N/A MISG        N/A
JACKSON        FOG       69  69 100 NE3       30.07R VSB 1/4
DYERSBURG      PTCLDY    72  70  94 MISG      30.06R
UNION CITY     PTCLDY    72  72 100 SE3       30.05R
PARIS          CLEAR     66  66 100 CALM      30.09R
$$

TNZ008-025-027-028-033-062-065-066-271300-
NORTH MIDDLE TENNESSEE

CITY           SKY/WX    TMP DP  RH WIND       PRES   REMARKS
NASHVILLE      PTCLDY    74  71  91 CALM      30.09R
CLARKSVILLE    CLOUDY    71  69  93 CALM      30.08R
SMYRNA         CLEAR     72  72 100 MISG      30.10
COOKEVILLE     CLEAR     73  72  94 NW3       30.10R
CROSSVILLE     CLEAR     69  68  96 CALM      30.17R FOG
$$

TNZ061-075-076-078-094-096-097-271300-
SOUTH MIDDLE TENNESSEE

CITY           SKY/WX    TMP DP  RH WIND       PRES   REMARKS
FAYETTEVILLE   PTCLDY    72  72 100 CALM      30.10R
TULLAHOMA      CLEAR     70  66  88 CALM      30.12R
WINCHESTER     CLEAR     70  70 100 CALM      30.11R
MCMINNVILLE    CLEAR     72  72 100 CALM      30.11R
COLUMBIA       CLOUDY   N/A N/A N/A CALM      30.08R VSB 1/4
SHELBYVILLE    CLEAR     73  73 100 CALM      30.10R
$$

TNZ017-018-042-046-047-271300-
NORTHEAST TENNESSEE

CITY           SKY/WX    TMP DP  RH WIND       PRES   REMARKS
TRI CITIES     MOSUNNY   68  67  96 CALM      30.18R FOG
ELIZABETHTON   SUNNY     70  66  88 NE5       30.18R
$$

TNZ012-013-036-069-073-074-271300-
CENTRAL EAST TENNESSEE

CITY           SKY/WX    TMP DP  RH WIND       PRES   REMARKS
KNOXVILLE      SUNNY     73  70  90 E3        30.12R
OAK RIDGE      CLOUDY    73  71  93 CALM      30.14R
GATLINBURG     SUNNY     70  66  88 CALM      30.13R
MORRISTOWN     SUNNY     72  70  94 CALM      30.14R
$$

TNZ083-085-099-271300-
SOUTHEAST TENNESSEE

CITY           SKY/WX    TMP DP  RH WIND       PRES   REMARKS
CHATTANOOGA    FOG       74  72  93 SW3       30.11R VSB 3/4
$$

SKY/WX REPORTED AS FAIR MEANS FEW OR NO CLOUDS BELOW
12 THOUSAND FEET.





USA.gov is the U.S. government's official web portal to all federal, state and local government web resources and services.